Regional Weather Roundup
Issued by NWS

Home | Current Version | Previous Version | Graphics & Text | Print | Product List | Glossary On
Versions: 1 2 3 4 5 6 7 8 9 10 11 12 13 14 15 16 17 18 19 20 21 22 23 24 25 26 27 28 29 30 31 32 33 34 35 36 37 38 39 40 41 42 43 44 45 46 47 48 49 50
652
ASUS43 KOAX 230603
RWRNE

WEATHER ROUNDUP FOR NEBRASKA
NATIONAL WEATHER SERVICE OMAHA NE
100 AM CDT WED MAY 23 2018

NOTES: SATELLITE DATA IS BEING USED TO AUGMENT CLOUD COVER ABOVE
       12000 FEET.
       "FAIR" INDICATES FEW OR NO CLOUDS BELOW 12,000 FEET WITH NO
       SIGNIFICANT WEATHER AND/OR OBSTRUCTIONS TO VISIBILITY.


NEZ001>004-019>022-054>056-230700-
NEBRASKA PANHANDLE

CITY           SKY/WX    TMP DP  RH WIND       PRES   REMARKS
SCOTTSBLUFF    CLOUDY    61  56  83 W13       29.94S
6HR MIN TEMP:  61; 6HR MAX TEMP:  77; 6HR PCP:  0.02;

ALLIANCE       MOCLDY    63  57  81 S10       29.93R
6HR MIN TEMP:  59; 6HR MAX TEMP:  77;

CHADRON        TSTM      58  56  93 S3        29.93R FOG
6HR MIN TEMP:  58; 6HR MAX TEMP:  71; 6HR PCP:  0.07;

GORDON         FAIR      63  59  87 S7        29.88F
6HR MIN TEMP:  62; 6HR MAX TEMP:  80;

KIMBALL        MOCLDY    57  50  77 NW14      29.97F
SIDNEY         MOCLDY    59  53  80 N6        29.94S
6HR MIN TEMP:  58; 6HR MAX TEMP:  78;

$$

NEZ057>060-069>072-079>082-230700-
SOUTHWEST NEBRASKA

CITY           SKY/WX    TMP DP  RH WIND       PRES   REMARKS
NORTH PLATTE   MOCLDY    62  58  86 SE8       29.92F
6HR MIN TEMP:  62; 6HR MAX TEMP:  82;

IMPERIAL       MOCLDY    64  54  69 SE9       29.91R
6HR MIN TEMP:  64; 6HR MAX TEMP:  80;

LEXINGTON      MOCLDY    71  64  76 S13       29.94F
MCCOOK         MOCLDY    68  57  68 S14G23    29.92F
6HR MIN TEMP:  68; 6HR MAX TEMP:  80;

OGALLALA       PTCLDY    68  54  60 SE13G20   29.90S
$$

NEZ005>010-023>029-035>040-094-230700-
NORTH CENTRAL NEBRASKA

CITY           SKY/WX    TMP DP  RH WIND       PRES   REMARKS
VALENTINE      MOCLDY    66  61  84 E12       29.92F
6HR MIN TEMP:  66; 6HR MAX TEMP:  83; 6HR PCP:  0.11;

AINSWORTH      CLOUDY    66  58  76 S7        29.93F
BROKEN BOW     PTCLDY    72  62  71 SE14      29.94F
6HR MIN TEMP:  69; 6HR MAX TEMP:  82;

O`NEILL        MOCLDY    73  65  76 SE6       29.95S
ORD            MOCLDY    73  63  70 SE5       29.93S
6HR MIN TEMP:  71; 6HR MAX TEMP:  84;

THEDFORD       MOCLDY    64  55  74 SE5       29.93F
$$

NEZ041-046>049-061>064-073>077-083>087-230700-
SOUTH CENTRAL NEBRASKA

CITY           SKY/WX    TMP DP  RH WIND       PRES   REMARKS
GRAND ISLAND   PTCLDY    70  62  76 S10       29.97R
6HR MIN TEMP:  70; 6HR MAX TEMP:  84;

AURORA         CLEAR     71  64  77 S14       29.97S
HASTINGS       CLEAR     72  63  73 S10       29.98S
6HR MIN TEMP:  71; 6HR MAX TEMP:  85;

HEBRON         CLEAR     73  64  73 S8        29.98S
HOLDREGE       PTCLDY    70  63  78 S15       29.96F
KEARNEY        CLOUDY    73  63  70 S18       29.95F
YORK           PTCLDY    72  68  88 S12       29.98R
$$

NEZ011>018-030>034-042>045-230700-
NORTHEAST NEBRASKA

CITY           SKY/WX    TMP DP  RH WIND       PRES   REMARKS
NORFOLK        PTCLDY    71  62  73 S10       29.96R
6HR MIN TEMP:  71; 6HR MAX TEMP:  84;

ALBION         CLOUDY    71  63  77 SE8       29.96S
BLAIR          PTCLDY    73  64  73 S9        30.00R
COLUMBUS       MOCLDY    73  63  70 S13       29.97S
FREMONT        CLEAR     76  63  64 S13G18    29.99S
TEKAMAH        PTCLDY    67  64  90 SE9       29.97S
6HR MIN TEMP:  67; 6HR MAX TEMP:  80;

WAYNE          MOCLDY    65  64  96 CALM      29.96S
$$

NEZ050>053-065>068-078-088>093-230700-
SOUTHEAST NEBRASKA

CITY           SKY/WX    TMP DP  RH WIND       PRES   REMARKS
LINCOLN        CLEAR     73  63  70 S9        29.99R
6HR MIN TEMP:  72; 6HR MAX TEMP:  85;

OMAHA EPPLEY   MOCLDY    72  61  68 S8        29.99R
6HR MIN TEMP:  72; 6HR MAX TEMP:  84;

BEATRICE       CLEAR     74  65  74 S8        29.99S
FALLS CITY     CLOUDY    72  63  73 S6        30.00S
6HR MIN TEMP:  71; 6HR MAX TEMP:  85;

NEBRASKA CITY  PTCLDY    71  65  81 S8        30.01S
PLATTSMOUTH    PTCLDY    72  63  74 SE9       30.00F
$$

NEZ044-045-051>053-067-230700-
OMAHA AREA

CITY           SKY/WX    TMP DP  RH WIND       PRES   REMARKS
OMAHA EPPLEY   MOCLDY    72  61  68 S8        29.99R
6HR MIN TEMP:  72; 6HR MAX TEMP:  84;

BLAIR          PTCLDY    73  64  73 S9        30.00R
FREMONT        CLEAR     76  63  64 S13G18    29.99S
MILLARD        PTCLDY    70  64  82 CALM      29.99S
OFFUTT AFB     PTCLDY    67  63  87 SE5       29.98S
PLATTSMOUTH    PTCLDY    72  63  74 SE9       30.00F
WAHOO          FAIR      68  61  77 SE8       29.98S
$$




USA.gov is the U.S. government's official web portal to all federal, state and local government web resources and services.